MPEC 2001-Y10: COMET C/2001 W2 (BATTERS)

The following Minor Planet Electronic Circular may be linked-to from your own Web pages, but must not otherwise be redistributed electronically.


Read MPEC 2001-Y09 Read MPEC 2001-Y11


M.P.E.C. 2001-Y10                                Issued 2001 Dec. 18, 18:10 UT

     The Minor Planet Electronic Circulars contain information on unusual
         minor planets and routine data on comets.  They are published
   on behalf of Commission 20 of the International Astronomical Union by the
          Minor Planet Center, Smithsonian Astrophysical Observatory,
                          Cambridge, MA 02138, U.S.A.

             Prepared using the Tamkin Foundation Computer Network

                              MPC@CFA.HARVARD.EDU
          URL http://cfa-www.harvard.edu/iau/mpc.html  ISSN 1523-6714

                           COMET C/2001 W2 (BATTERS)

Observations:
    CK01W020  C2001 11 23.42622 18 17 17.46 +22 46 52.1          13.2 T      372
    CK01W020  C2001 11 28.40932 18 30 41.12 +17 19 18.9          13.2 T      903
    CK01W020  C2001 11 28.41274 18 30 41.63 +17 19 06.7                      903
    CK01W020  C2001 11 28.42022 18 30 42.75 +17 18 38.4                      903
    CK01W020  C2001 11 29.74975 18 33 58.97 +15 56 20.7          14.1 T      620
    CK01W020  C2001 11 29.76334 18 34 01.01 +15 55 28.5          14.2 T      620
    CK01W020  C2001 11 29.76966 18 34 01.93 +15 55 05.6          14.1 T      620
    CK01W020  C2001 11 30.38589 18 35 30.31 +15 17 46.9                      903
    CK01W020  C2001 11 30.38986 18 35 30.91 +15 17 32.5          13.5 T      903
    CK01W020  C2001 11 30.40706 18 35 33.32 +15 16 29.9                      300
    CK01W020  C2001 11 30.40792 18 35 33.43 +15 16 27.1                      300
    CK01W020  C2001 11 30.40876 18 35 33.58 +15 16 23.9                      300
    CK01W020  C2001 11 30.40961 18 35 33.69 +15 16 20.3          13.6 T      300
    CK01W020  C2001 11 30.41045 18 35 33.83 +15 16 17.7                      300
    CK01W020  C2001 11 30.41120 18 35 33.94 +15 16 15.6                      903
    CK01W020  C2001 11 30.76935 18 36 24.65 +14 54 45.0          14.3 N      232
    CK01W020  C2001 11 30.77418 18 36 25.34 +14 54 27.0          14.4 N      232
    CK01W020  C2001 11 30.77858 18 36 25.94 +14 54 11.5          14.4 N      232
    CK01W020  C2001 12 01.38019 18 37 50.22 +14 18 24.7          13.4 T      340
    CK01W020  C2001 12 01.39729 18 37 52.57 +14 17 24.2          13.6 T      300
    CK01W020  C2001 12 01.39832 18 37 52.69 +14 17 20.4                      340
    CK01W020  C2001 12 01.39855 18 37 52.75 +14 17 19.6                      300
    CK01W020  C2001 12 01.39975 18 37 52.90 +14 17 15.7                      300
    CK01W020  C2001 12 01.40095 18 37 53.07 +14 17 11.4                      300
    CK01W020  C2001 12 01.40213 18 37 53.23 +14 17 07.3                      300
    CK01W020  C2001 12 01.40333 18 37 53.40 +14 17 02.5                      300
    CK01W020  C2001 12 01.40368 18 37 53.44 +14 17 01.3                      340
    CK01W020  C2001 12 01.74010 18 38 40.00 +13 57 12.2          14.2 N      213
    CK01W020  C2001 12 01.74444 18 38 40.62 +13 56 56.3          14.2 N      213
    CK01W020  C2001 12 01.74703 18 38 40.91 +13 56 47.9          14.2 N      213
    CK01W020  C2001 12 01.75477 18 38 41.98 +13 56 20.2          14.2 N      213
    CK01W020  C2001 12 02.35255 18 40 03.71 +13 21 28.9          13.6 T      349
    CK01W020  C2001 12 02.35381 18 40 03.88 +13 21 24.5                      349
    CK01W020  C2001 12 02.35492 18 40 04.01 +13 21 20.7                      349
    CK01W020  C2001 12 02.35590 18 40 04.18 +13 21 17.1                      349
    CK01W020  C2001 12 02.36993 18 40 06.09 +13 20 28.6          14.0 T      903
    CK01W020  C2001 12 02.37264 18 40 06.42 +13 20 18.8                      903
    CK01W020  C2001 12 02.37490 18 40 06.74 +13 20 10.4                      903
    CK01W020  C2001 12 02.38197 18 40 07.73 +13 19 46.3                      300
    CK01W020  C2001 12 02.38316 18 40 07.86 +13 19 42.5                      300
    CK01W020  C2001 12 02.39155 18 40 08.97 +13 19 13.4          13.7 T      300
    CK01W020  C2001 12 02.39275 18 40 09.16 +13 19 08.8                      300
    CK01W020  C2001 12 02.40102 18 40 10.27 +13 18 39.9                      888
    CK01W020  C2001 12 02.40369 18 40 10.62 +13 18 30.1                      888
    CK01W020  C2001 12 02.40534 18 40 10.83 +13 18 24.5                      888
    CK01W020  C2001 12 02.40778 18 40 11.15 +13 18 16.0                      888
    CK01W020  C2001 12 02.66014 18 40 45.37 +13 03 41.1                      461
    CK01W020  C2001 12 02.66199 18 40 45.61 +13 03 34.7                      461
    CK01W020  C2001 12 02.66566 18 40 46.10 +13 03 21.9                      461
    CK01W020  C2001 12 02.66763 18 40 46.35 +13 03 15.3          13.5 T      461
    CK01W020  C2001 12 02.68109 18 40 48.20 +13 02 29.5          13.3 T      118
    CK01W020  C2001 12 02.68191 18 40 48.30 +13 02 26.7                      118
    CK01W020  C2001 12 02.68354 18 40 48.49 +13 02 20.3                      118
    CK01W020  C2001 12 04.36690 18 44 30.36 +11 27 03.9                      300
    CK01W020  C2001 12 04.36867 18 44 30.59 +11 26 58.0                      300
    CK01W020  C2001 12 04.36956 18 44 30.69 +11 26 55.3                      300
    CK01W020  C2001 12 04.37044 18 44 30.78 +11 26 52.2                      300
    CK01W020  C2001 12 04.37310 18 44 31.14 +11 26 43.4                      300
    CK01W020  C2001 12 06.36590 18 48 42.89 +09 38 01.2                      300
    CK01W020  C2001 12 06.36937 18 48 43.32 +09 37 50.1                      300
    CK01W020  C2001 12 06.37024 18 48 43.43 +09 37 47.2                      300
    CK01W020  C2001 12 06.37197 18 48 43.64 +09 37 41.6                      300
    CK01W020  C2001 12 06.37284 18 48 43.76 +09 37 39.1                      300
    CK01W020  C2001 12 06.72773 18 49 27.40 +09 18 43.8          13.5 N      213
    CK01W020  C2001 12 06.73029 18 49 27.68 +09 18 35.8          13.5 N      213
    CK01W020  C2001 12 06.73928 18 49 28.81 +09 18 07.1          13.5 N      213
    CK01W020  C2001 12 07.36581 18 50 45.00 +08 45 05.6          12   T      300
    CK01W020  C2001 12 07.36670 18 50 45.11 +08 45 02.7                      300
    CK01W020  C2001 12 07.36759 18 50 45.21 +08 44 59.9                      300
    CK01W020  C2001 12 07.36848 18 50 45.32 +08 44 57.3                      300
    CK01W020  C2001 12 07.37027 18 50 45.53 +08 44 51.6                      300
    CK01W020  C2001 12 07.37207 18 50 45.74 +08 44 46.0                      300
    CK01W020  C2001 12 07.72057 18 51 27.63 +08 26 35.9          12.2 N      213
    CK01W020  C2001 12 07.73163 18 51 28.97 +08 26 01.5          12.2 N      213
    CK01W020  C2001 12 07.74242 18 51 30.17 +08 25 25.8          12.2 N      213
    CK01W020  C2001 12 08.34531 18 52 42.00 +07 54 19.2                      349
    CK01W020  C2001 12 08.34669 18 52 42.17 +07 54 14.9                      349
    CK01W020  C2001 12 08.34786 18 52 42.30 +07 54 11.3                      349
    CK01W020  C2001 12 08.35060 18 52 42.62 +07 54 02.8          12.0 T      349
    CK01W020  C2001 12 09.01544 18 54 00.51 +07 20 13.7          12.6 T      452
    CK01W020  C2001 12 09.01692 18 54 00.97 +07 20 02.5          12.7 T      452
    CK01W020  C2001 12 09.01895 18 54 01.22 +07 19 57.9          12.7 T      452
    CK01W020  C2001 12 09.02095 18 54 01.43 +07 19 50.0          12.7 T      452
    CK01W020  C2001 12 09.02494 18 54 01.95 +07 19 37.2          12.5 T      452
    CK01W020  C2001 12 09.41850 18 54 47.66 +06 59 46.8          12   T      300
    CK01W020  C2001 12 09.41940 18 54 47.74 +06 59 43.9                      300
    CK01W020  C2001 12 09.42030 18 54 47.85 +06 59 40.9                      300
    CK01W020  C2001 12 09.42118 18 54 47.96 +06 59 39.2                      300
    CK01W020  C2001 12 09.42206 18 54 48.08 +06 59 36.1                      300
    CK01W020  C2001 12 09.42294 18 54 48.14 +06 59 33.1                      300
    CK01W020  C2001 12 09.42647 18 54 48.58 +06 59 22.1                      300
    CK01W020  C2001 12 11.00374 18 57 48.14 +05 41 26.7          13.4 T      452
    CK01W020  C2001 12 11.01575 18 57 49.54 +05 40 49.1          13.6 T      452
    CK01W020  C2001 12 11.01769 18 57 49.76 +05 40 41.7          13.6 T      452
    CK01W020  C2001 12 11.71692 18 59 07.93 +05 06 46.7                      619
    CK01W020  C2001 12 11.71770 18 59 08.02 +05 06 43.3                      619
    CK01W020  C2001 12 11.71850 18 59 08.15 +05 06 40.3                      619
    CK01W020  C2001 12 11.71929 18 59 08.22 +05 06 38.2                      619
    CK01W020  C2001 12 11.72008 18 59 08.29 +05 06 35.7                      619

Observer details:
118 Modra.  Observers S. Gajdos, J. Toth.  0.6-m f/5.5 reflector + CCD.
213 Observatorio Montcabre.  Observer R. Naves N.  Measurer M. Campas.
    0.25-m f/3.3 Schmidt-Cassegrain + CCD.
232 Masquefa Observatory.  Observer E. Reina L.  0.25-m f/6.3
    Schmidt-Cassegrain + CCD.
300 Bisei Spaceguard Center--BATTeRS.  Observers A. Asami, D. J. Asher,
    S. Hashimoto, S. Isobe, S. Nakano, Y. Oshima, J. Terazono, T. Urata,
    M. Yoshikawa.  0.50-m f/2.0 reflector + CCD.
340 Toyonaka.  Observer Y. Ezaki.  0.3-m f/6.0 reflector + CCD.
349 Ageo.  Observer K. Kadota.  0.18-m f/5.5 reflector + CCD.
372 Geisei.  Observer T. Seki.  0.60-m f/3.5 reflector.
452 Big Cypress Observatory.  Observer L. Nemec.  0.25-m Schmidt-Cassegrain
    + CCD.
461 JATE Asteroid Survey, Piszkesteto Stn. (Konkoly).  Observers K. Sarneczky,
    G. Furesz, L. Kiss.  0.60-m Schmidt + CCD.
619 Sabadell.  Observer R. Casas.  0.51-m f/3.9 reflector + CCD.
620 Observatorio Astronomico de Mallorca.  Observers S. Sanchez, J. Rodriguez.
    0.30-m f/3.3 Schmidt-Cassegrain + CCD.
888 Gekko Observatory.  Observer T. Kagawa.  0.50-m f/4.0 reflector + CCD.
903 Fukuchiyama.  Observer M. Yoshimi.  0.25-m f/6.3 Schmidt-Cassegrain + CCD.

Orbital elements:
    C/2001 W2 (BATTERS)
T 2001 Dec. 23.9111 TT                                  MPC
q   1.051114             (2000.0)            P               Q
n   0.0129521      Peri.  142.0761      +0.5592946      -0.0728382
a  17.957343       Node   113.3545      -0.7866481      -0.3608480
e   0.941466       Incl.  115.9134      +0.2614849      -0.9297760
P  76.1
From 285 observations 2001 Nov. 21-Dec. 11.

Brian G. Marsden             (C) Copyright 2001 MPC           M.P.E.C. 2001-Y10

Read MPEC 2001-Y09 Read MPEC 2001-Y11


Our Web policy. Index to the CBAT/MPC/ICQ pages.

MPC